HAZ3756 ZHHH-ZGGG

Flight info

Callsign HAZ3756
Flight time 1h 20m
Altitude 30100
Route OLMIB W37 OMBEB R473 BEMAG V5 ENVIP
Aircraft A359/H-SDE2E3GHIJ3J4J5LM1ORWXY/LB1D1

Departure

Time 2026-05-07 07:24
Airport Wuhan Tianhe International Airport (ZHHH)

Arrival

Time 2026-05-07 08:44
Airport Guangzhou Baiyun International Airport (ZGGG)
Time Latitude Longitude Altitude Speed Heading
2026-05-07 07:05 30.77497 114.21657 114 ft 0 kts 223°
2026-05-07 07:14 30.77498 114.21659 110 ft 2 kts 223°
2026-05-07 07:14 30.77511 114.21672 110 ft 2 kts 223°
2026-05-07 07:14 30.77523 114.21685 112 ft 2 kts 223°
2026-05-07 07:14 30.77535 114.21698 110 ft 2 kts 222°
2026-05-07 07:15 30.77547 114.21711 110 ft 2 kts 214°
2026-05-07 07:15 30.77563 114.21715 110 ft 2 kts 173°
2026-05-07 07:15 30.77579 114.21711 111 ft 2 kts 155°
2026-05-07 07:15 30.77588 114.21705 110 ft 0 kts 136°
2026-05-07 07:17 30.77586 114.21708 110 ft 2 kts 134°
2026-05-07 07:17 30.77562 114.21739 110 ft 9 kts 131°
2026-05-07 07:18 30.77518 114.21797 111 ft 15 kts 131°
2026-05-07 07:18 30.77471 114.21859 111 ft 19 kts 131°
2026-05-07 07:19 30.77373 114.21988 111 ft 23 kts 131°
2026-05-07 07:19 30.77341 114.22030 112 ft 23 kts 131°
2026-05-07 07:19 30.77229 114.22177 111 ft 16 kts 131°
2026-05-07 07:19 30.77187 114.22225 110 ft 10 kts 150°
2026-05-07 07:20 30.77125 114.22202 111 ft 11 kts 220°
2026-05-07 07:20 30.77053 114.22130 110 ft 16 kts 221°
2026-05-07 07:20 30.76955 114.22030 112 ft 21 kts 221°
2026-05-07 07:20 30.76835 114.21908 114 ft 25 kts 221°
2026-05-07 07:21 30.76698 114.21768 110 ft 28 kts 221°
2026-05-07 07:21 30.76547 114.21614 110 ft 30 kts 221°
2026-05-07 07:21 30.76383 114.21446 113 ft 32 kts 221°
2026-05-07 07:21 30.76208 114.21268 112 ft 34 kts 221°
2026-05-07 07:22 30.76040 114.21097 111 ft 27 kts 221°
2026-05-07 07:22 30.75921 114.20975 112 ft 10 kts 220°
2026-05-07 07:22 30.75853 114.20982 114 ft 12 kts 139°
2026-05-07 07:22 30.75792 114.21070 112 ft 15 kts 108°
2026-05-07 07:23 30.75827 114.21142 114 ft 0 kts 41°
2026-05-07 07:23 30.75919 114.21235 114 ft 53 kts 41°
2026-05-07 07:23 30.76393 114.21717 111 ft 125 kts 41°
2026-05-07 07:23 30.77185 114.22540 273 ft 169 kts 41°
2026-05-07 07:24 30.78026 114.23418 1283 ft 155 kts 39°
2026-05-07 07:24 30.78771 114.24280 2303 ft 151 kts 47°
2026-05-07 07:24 30.79387 114.25353 2646 ft 172 kts 54°
2026-05-07 07:24 30.80051 114.26616 2962 ft 191 kts 54°
2026-05-07 07:25 30.81532 114.29328 4063 ft 206 kts 54°
2026-05-07 07:25 30.82305 114.30764 4598 ft 214 kts 58°
2026-05-07 07:25 30.82756 114.32424 5151 ft 225 kts 82°
2026-05-07 07:26 30.82471 114.34256 5809 ft 235 kts 111°
2026-05-07 07:26 30.81654 114.35649 6374 ft 241 kts 127°
2026-05-07 07:26 30.80759 114.36806 6834 ft 244 kts 129°
2026-05-07 07:26 30.79598 114.38259 7408 ft 246 kts 129°
2026-05-07 07:27 30.78442 114.39725 8023 ft 247 kts 129°
2026-05-07 07:27 30.77280 114.41216 8620 ft 250 kts 129°
2026-05-07 07:27 30.76088 114.42684 9254 ft 252 kts 135°
2026-05-07 07:27 30.74588 114.43763 9854 ft 258 kts 159°
2026-05-07 07:28 30.72800 114.44016 10345 ft 266 kts 185°
2026-05-07 07:28 30.71018 114.43286 10558 ft 282 kts 214°
2026-05-07 07:28 30.69459 114.41808 10796 ft 297 kts 223°
2026-05-07 07:28 30.67899 114.40135 11018 ft 312 kts 223°
2026-05-07 07:29 30.66264 114.38401 11260 ft 325 kts 223°
2026-05-07 07:29 30.64550 114.36613 11479 ft 337 kts 223°
2026-05-07 07:29 30.62767 114.34767 11713 ft 347 kts 223°
2026-05-07 07:29 30.60947 114.32894 12082 ft 352 kts 223°
2026-05-07 07:30 30.59114 114.31016 12563 ft 352 kts 223°
2026-05-07 07:30 30.57279 114.29137 13058 ft 352 kts 223°
2026-05-07 07:30 30.55441 114.27256 13483 ft 354 kts 223°
2026-05-07 07:30 30.53590 114.25364 13874 ft 356 kts 223°
2026-05-07 07:31 30.51730 114.23463 14236 ft 358 kts 223°
2026-05-07 07:31 30.49856 114.21549 14579 ft 360 kts 223°
2026-05-07 07:31 30.47971 114.19626 14931 ft 362 kts 223°
2026-05-07 07:31 30.46079 114.17697 15272 ft 364 kts 223°
2026-05-07 07:32 30.44176 114.15758 15644 ft 365 kts 224°
2026-05-07 07:32 30.42261 114.13813 16003 ft 367 kts 224°
2026-05-07 07:32 30.40337 114.11853 16343 ft 369 kts 224°
2026-05-07 07:32 30.38406 114.09888 16692 ft 371 kts 224°
2026-05-07 07:33 30.36463 114.07911 17050 ft 373 kts 224°
2026-05-07 07:33 30.34510 114.05924 17379 ft 375 kts 224°
2026-05-07 07:33 30.32547 114.03930 17716 ft 376 kts 224°
2026-05-07 07:33 30.30526 114.01983 18030 ft 380 kts 219°
2026-05-07 07:34 30.28243 114.00411 18346 ft 385 kts 209°
2026-05-07 07:34 30.25814 113.99084 18620 ft 387 kts 208°
2026-05-07 07:34 30.23354 113.97782 18890 ft 390 kts 208°
2026-05-07 07:34 30.20885 113.96472 19214 ft 391 kts 208°
2026-05-07 07:35 30.18412 113.95154 19514 ft 392 kts 208°
2026-05-07 07:35 30.15930 113.93830 19812 ft 393 kts 208°
2026-05-07 07:35 30.13442 113.92501 20092 ft 395 kts 208°
2026-05-07 07:35 30.10947 113.91168 20380 ft 396 kts 208°
2026-05-07 07:36 30.08439 113.89828 20653 ft 397 kts 209°
2026-05-07 07:36 30.05925 113.88486 20936 ft 399 kts 209°
2026-05-07 07:36 30.03402 113.87140 21223 ft 400 kts 209°
2026-05-07 07:36 30.00871 113.85789 21491 ft 402 kts 209°
2026-05-07 07:37 29.98366 113.84453 21757 ft 403 kts 209°
2026-05-07 07:37 29.95816 113.83095 22012 ft 405 kts 209°
2026-05-07 07:37 29.93253 113.81730 22274 ft 406 kts 209°
2026-05-07 07:37 29.90685 113.80364 22575 ft 407 kts 209°
2026-05-07 07:38 29.88049 113.79122 22871 ft 413 kts 203°
2026-05-07 07:38 29.85229 113.78366 23164 ft 420 kts 193°
2026-05-07 07:38 29.82311 113.77990 23427 ft 424 kts 190°
2026-05-07 07:38 29.79355 113.77754 23665 ft 427 kts 188°
2026-05-07 07:39 29.76378 113.77581 23875 ft 429 kts 188°
2026-05-07 07:39 29.73388 113.77424 24068 ft 431 kts 188°
2026-05-07 07:39 29.70387 113.77258 24279 ft 432 kts 188°
2026-05-07 07:39 29.67383 113.77078 24489 ft 433 kts 188°
2026-05-07 07:40 29.64370 113.76883 24691 ft 434 kts 188°
2026-05-07 07:40 29.61345 113.76679 24908 ft 436 kts 189°
2026-05-07 07:40 29.58316 113.76468 25127 ft 437 kts 189°
2026-05-07 07:40 29.55272 113.76255 25334 ft 439 kts 189°
2026-05-07 07:41 29.52228 113.76043 25616 ft 438 kts 189°
2026-05-07 07:41 29.49192 113.75833 25957 ft 436 kts 189°
2026-05-07 07:41 29.46175 113.75626 26307 ft 433 kts 189°
2026-05-07 07:41 29.43175 113.75419 26672 ft 431 kts 189°
2026-05-07 07:42 29.41191 113.75282 26909 ft 430 kts 189°
2026-05-07 07:42 29.37200 113.75006 27404 ft 429 kts 189°
2026-05-07 07:42 29.35229 113.74868 27649 ft 429 kts 189°
2026-05-07 07:42 29.31242 113.74591 28138 ft 429 kts 189°
2026-05-07 07:43 29.29271 113.74454 28394 ft 428 kts 189°
2026-05-07 07:43 29.26297 113.74249 28779 ft 427 kts 189°
2026-05-07 07:43 29.23334 113.74046 29175 ft 426 kts 190°
2026-05-07 07:43 29.20365 113.73932 29573 ft 428 kts 186°
2026-05-07 07:44 29.17378 113.73994 29951 ft 430 kts 184°
2026-05-07 07:44 29.14357 113.74133 30071 ft 440 kts 184°
2026-05-07 07:44 29.11247 113.74287 30075 ft 454 kts 184°
2026-05-07 07:45 29.04895 113.74564 30071 ft 457 kts 184°
2026-05-07 07:45 29.01683 113.74678 30074 ft 468 kts 184°
2026-05-07 07:45 28.98384 113.74777 30067 ft 481 kts 184°
2026-05-07 07:45 28.94998 113.74871 30064 ft 493 kts 184°
2026-05-07 07:46 28.91533 113.74966 30062 ft 504 kts 184°
2026-05-07 07:46 28.84382 113.75168 30064 ft 523 kts 184°
2026-05-07 07:47 28.77030 113.75387 30063 ft 531 kts 184°
2026-05-07 07:47 28.69723 113.75200 30063 ft 528 kts 188°
2026-05-07 07:48 28.62399 113.74696 30058 ft 527 kts 188°
2026-05-07 07:48 28.55080 113.74139 30060 ft 527 kts 189°
2026-05-07 07:49 28.47767 113.73589 30050 ft 527 kts 188°
2026-05-07 07:49 28.40455 113.73050 30055 ft 527 kts 188°
2026-05-07 07:50 28.33164 113.72518 30045 ft 527 kts 188°
2026-05-07 07:50 28.25819 113.71994 30047 ft 527 kts 188°
2026-05-07 07:51 28.18504 113.71469 30043 ft 527 kts 188°
2026-05-07 07:51 28.11188 113.70931 30042 ft 527 kts 188°
2026-05-07 07:52 28.03886 113.70313 30041 ft 526 kts 189°
2026-05-07 07:52 27.96591 113.69636 30032 ft 526 kts 189°
2026-05-07 07:53 27.89307 113.68959 30039 ft 525 kts 189°
2026-05-07 07:53 27.82024 113.68300 30041 ft 525 kts 189°
2026-05-07 07:54 27.74746 113.67652 30042 ft 524 kts 189°
2026-05-07 07:54 27.67489 113.67008 30034 ft 523 kts 189°
2026-05-07 07:55 27.60230 113.66450 30033 ft 523 kts 187°
2026-05-07 07:55 27.52944 113.66321 30034 ft 524 kts 185°
2026-05-07 07:56 27.45642 113.66264 30041 ft 525 kts 185°
2026-05-07 07:56 27.38342 113.66145 30044 ft 526 kts 186°
2026-05-07 07:57 27.31025 113.65982 30043 ft 526 kts 186°
2026-05-07 07:57 27.23694 113.65819 30041 ft 527 kts 186°
2026-05-07 07:58 27.16382 113.66291 30037 ft 537 kts 173°
2026-05-07 07:58 27.09090 113.68208 30040 ft 540 kts 169°
2026-05-07 07:59 27.01830 113.70384 30034 ft 540 kts 169°
2026-05-07 07:59 26.94561 113.72578 30035 ft 541 kts 169°
2026-05-07 08:00 26.87292 113.74738 30032 ft 541 kts 169°
2026-05-07 08:00 26.80015 113.76880 30041 ft 541 kts 169°
2026-05-07 08:01 26.72734 113.79020 30039 ft 541 kts 168°
2026-05-07 08:01 26.65475 113.81269 30035 ft 541 kts 167°
2026-05-07 08:02 26.58226 113.83569 30040 ft 542 kts 167°
2026-05-07 08:02 26.50972 113.85856 30044 ft 542 kts 168°
2026-05-07 08:03 26.43696 113.88070 30047 ft 542 kts 169°
2026-05-07 08:03 26.36387 113.90148 30042 ft 542 kts 169°
2026-05-07 08:04 26.29077 113.92224 30045 ft 543 kts 169°
2026-05-07 08:04 26.21754 113.94326 30042 ft 544 kts 169°
2026-05-07 08:05 26.14416 113.96440 30039 ft 545 kts 169°
2026-05-07 08:05 26.07109 113.98545 30032 ft 546 kts 169°
2026-05-07 08:06 25.99641 113.99509 30029 ft 537 kts 186°
2026-05-07 08:06 25.92254 113.98554 30022 ft 534 kts 192°
2026-05-07 08:07 25.84900 113.97246 30023 ft 534 kts 193°
2026-05-07 08:07 25.77565 113.95915 30021 ft 533 kts 192°
2026-05-07 08:08 25.70246 113.94629 30014 ft 533 kts 192°
2026-05-07 08:08 25.62909 113.93361 30020 ft 533 kts 192°
2026-05-07 08:09 25.55560 113.92098 30017 ft 535 kts 193°
2026-05-07 08:09 25.48206 113.90836 30014 ft 536 kts 193°
2026-05-07 08:10 25.40834 113.89571 30012 ft 536 kts 193°
2026-05-07 08:10 25.33463 113.88304 30015 ft 537 kts 193°
2026-05-07 08:11 25.26065 113.87036 30001 ft 538 kts 193°
2026-05-07 08:11 25.18666 113.85771 29997 ft 538 kts 193°
2026-05-07 08:12 25.11260 113.84511 29992 ft 539 kts 193°
2026-05-07 08:12 25.03839 113.83247 29999 ft 540 kts 193°
2026-05-07 08:13 24.96418 113.81979 30001 ft 540 kts 193°
2026-05-07 08:13 24.88991 113.80716 29999 ft 540 kts 193°
2026-05-07 08:14 24.81572 113.79455 29998 ft 539 kts 193°
2026-05-07 08:14 24.74152 113.78197 29999 ft 540 kts 193°
2026-05-07 08:15 24.66726 113.76936 29998 ft 540 kts 193°
2026-05-07 08:15 24.59306 113.75679 30000 ft 537 kts 193°
2026-05-07 08:16 24.51960 113.74437 30001 ft 540 kts 193°
2026-05-07 08:16 24.44520 113.73175 30002 ft 541 kts 193°
2026-05-07 08:16 24.40841 113.72560 30003 ft 524 kts 193°
2026-05-07 08:17 24.37301 113.71973 29965 ft 505 kts 193°
2026-05-07 08:17 24.33870 113.71407 29676 ft 493 kts 193°
2026-05-07 08:17 24.30511 113.70847 29300 ft 483 kts 193°
2026-05-07 08:17 24.27210 113.70287 28893 ft 479 kts 193°
2026-05-07 08:18 24.23914 113.69720 28375 ft 479 kts 193°
2026-05-07 08:18 24.20627 113.69159 27841 ft 476 kts 193°
2026-05-07 08:18 24.17373 113.68606 27348 ft 472 kts 193°
2026-05-07 08:18 24.14140 113.68061 26867 ft 467 kts 193°
2026-05-07 08:19 24.10949 113.67514 26394 ft 462 kts 193°
2026-05-07 08:19 24.07788 113.66966 25922 ft 458 kts 193°
2026-05-07 08:19 24.04658 113.66422 25467 ft 453 kts 193°
2026-05-07 08:19 24.01633 113.65622 25007 ft 443 kts 203°
2026-05-07 08:20 23.98913 113.64160 24559 ft 430 kts 217°
2026-05-07 08:20 23.96670 113.62102 24219 ft 415 kts 229°
2026-05-07 08:20 23.94773 113.59772 23889 ft 405 kts 232°
2026-05-07 08:20 23.92964 113.57439 23478 ft 399 kts 232°
2026-05-07 08:21 23.91177 113.55138 22967 ft 395 kts 232°
2026-05-07 08:21 23.89410 113.52873 22458 ft 386 kts 232°
2026-05-07 08:21 23.87689 113.50676 21960 ft 380 kts 232°
2026-05-07 08:21 23.85975 113.48486 21562 ft 377 kts 232°
2026-05-07 08:22 23.84276 113.46322 21203 ft 374 kts 232°
2026-05-07 08:22 23.82591 113.44176 20848 ft 371 kts 232°
2026-05-07 08:22 23.80927 113.42059 20498 ft 369 kts 232°
2026-05-07 08:22 23.79257 113.39936 20140 ft 367 kts 232°
2026-05-07 08:23 23.77596 113.37826 19790 ft 366 kts 232°
2026-05-07 08:23 23.75941 113.35724 19451 ft 364 kts 232°
2026-05-07 08:23 23.74295 113.33635 19103 ft 362 kts 232°
2026-05-07 08:23 23.72677 113.31580 18775 ft 361 kts 232°
2026-05-07 08:24 23.71022 113.29482 18436 ft 359 kts 232°
2026-05-07 08:24 23.69417 113.27452 18102 ft 358 kts 231°
2026-05-07 08:24 23.67653 113.25540 17716 ft 359 kts 221°
2026-05-07 08:24 23.65526 113.24108 17334 ft 361 kts 207°
2026-05-07 08:25 23.63124 113.23281 16962 ft 363 kts 196°
2026-05-07 08:25 23.60709 113.22734 16501 ft 363 kts 195°
2026-05-07 08:25 23.58238 113.22203 15982 ft 359 kts 195°
2026-05-07 08:25 23.55821 113.21679 15401 ft 352 kts 195°
2026-05-07 08:26 23.51027 113.20614 14233 ft 350 kts 195°
2026-05-07 08:26 23.48649 113.20082 13669 ft 348 kts 195°
2026-05-07 08:26 23.46286 113.19554 13050 ft 345 kts 195°
2026-05-07 08:27 23.43943 113.19029 12435 ft 346 kts 195°
2026-05-07 08:27 23.41581 113.18500 11804 ft 342 kts 194°
2026-05-07 08:27 23.39319 113.18005 11229 ft 322 kts 194°
2026-05-07 08:27 23.37176 113.17540 10658 ft 306 kts 194°
2026-05-07 08:28 23.35134 113.17086 10104 ft 295 kts 194°
2026-05-07 08:28 23.33139 113.16635 9671 ft 292 kts 194°
2026-05-07 08:28 23.31152 113.16185 9422 ft 293 kts 194°
2026-05-07 08:28 23.29153 113.15734 9191 ft 292 kts 194°
2026-05-07 08:29 23.27175 113.15290 8968 ft 289 kts 194°
2026-05-07 08:29 23.25214 113.14850 8746 ft 287 kts 194°
2026-05-07 08:29 23.23261 113.14411 8518 ft 286 kts 194°
2026-05-07 08:29 23.21318 113.13976 8295 ft 285 kts 194°
2026-05-07 08:30 23.19381 113.13541 8075 ft 284 kts 194°
2026-05-07 08:30 23.17452 113.13108 7855 ft 282 kts 194°
2026-05-07 08:30 23.15531 113.12677 7645 ft 281 kts 194°
2026-05-07 08:30 23.13618 113.12248 7429 ft 280 kts 193°
2026-05-07 08:31 23.11736 113.11826 7212 ft 278 kts 193°
2026-05-07 08:31 23.09867 113.11410 7003 ft 270 kts 193°
2026-05-07 08:31 23.08053 113.11005 6799 ft 262 kts 193°
2026-05-07 08:31 23.06292 113.10611 6594 ft 255 kts 193°
2026-05-07 08:32 23.04581 113.10229 6396 ft 248 kts 193°
2026-05-07 08:32 23.02912 113.09853 6192 ft 242 kts 194°
2026-05-07 08:32 23.01301 113.09426 5973 ft 236 kts 196°
2026-05-07 08:32 22.99717 113.09001 5748 ft 233 kts 193°
2026-05-07 08:33 22.98109 113.08873 5536 ft 232 kts 177°
2026-05-07 08:33 22.97042 113.09113 5392 ft 232 kts 163°
2026-05-07 08:33 22.95637 113.09963 5173 ft 233 kts 142°
2026-05-07 08:33 22.94595 113.11301 4980 ft 235 kts 122°
2026-05-07 08:34 22.93986 113.13486 4720 ft 220 kts 97°
2026-05-07 08:34 22.93872 113.14567 4590 ft 208 kts 99°
2026-05-07 08:34 22.93745 113.16113 4379 ft 204 kts 92°
2026-05-07 08:34 22.93958 113.17625 4167 ft 203 kts 73°
2026-05-07 08:35 22.94613 113.18954 4031 ft 205 kts 53°
2026-05-07 08:35 22.95671 113.19978 3913 ft 205 kts 32°
2026-05-07 08:35 22.96993 113.20533 3786 ft 205 kts 11°
2026-05-07 08:35 22.98405 113.20675 3671 ft 204 kts
2026-05-07 08:36 22.99814 113.20864 3555 ft 204 kts 10°
2026-05-07 08:36 23.01200 113.21178 3432 ft 204 kts 13°
2026-05-07 08:36 23.02581 113.21530 3313 ft 203 kts 13°
2026-05-07 08:36 23.03955 113.21891 3203 ft 203 kts 13°
2026-05-07 08:37 23.05326 113.22259 3077 ft 203 kts 14°
2026-05-07 08:37 23.06697 113.22624 2958 ft 203 kts 14°
2026-05-07 08:37 23.08064 113.22988 2835 ft 202 kts 14°
2026-05-07 08:37 23.09426 113.23350 2715 ft 201 kts 14°
2026-05-07 08:38 23.10784 113.23716 2595 ft 201 kts 14°
2026-05-07 08:38 23.12090 113.24067 2478 ft 201 kts 14°
2026-05-07 08:38 23.13446 113.24432 2358 ft 201 kts 14°
2026-05-07 08:38 23.14801 113.24797 2243 ft 200 kts 14°
2026-05-07 08:39 23.16154 113.25155 2110 ft 200 kts 14°
2026-05-07 08:39 23.17505 113.25521 1999 ft 200 kts 14°
2026-05-07 08:39 23.18852 113.25882 1907 ft 199 kts 15°
2026-05-07 08:39 23.20201 113.26247 1893 ft 200 kts 15°
2026-05-07 08:40 23.21538 113.26614 1894 ft 193 kts 15°
2026-05-07 08:40 23.22790 113.26959 1885 ft 180 kts 14°
2026-05-07 08:40 23.23999 113.27287 1884 ft 178 kts 15°
2026-05-07 08:40 23.25200 113.27609 1881 ft 178 kts 15°
2026-05-07 08:41 23.26395 113.27932 1869 ft 176 kts 14°
2026-05-07 08:41 23.27585 113.28251 1868 ft 177 kts 14°
2026-05-07 08:41 23.28775 113.28568 1666 ft 174 kts 15°
2026-05-07 08:41 23.29944 113.28884 1428 ft 171 kts 15°
2026-05-07 08:42 23.31066 113.29186 1222 ft 160 kts 15°
2026-05-07 08:42 23.32108 113.29468 1029 ft 149 kts 14°
2026-05-07 08:42 23.33104 113.29737 818 ft 146 kts 14°
2026-05-07 08:42 23.34069 113.29998 661 ft 139 kts 14°
2026-05-07 08:43 23.35018 113.30262 502 ft 141 kts 14°
2026-05-07 08:43 23.35973 113.30505 321 ft 140 kts 13°
2026-05-07 08:43 23.36915 113.30754 145 ft 139 kts 13°
2026-05-07 08:43 23.37809 113.30998 58 ft 123 kts 14°
2026-05-07 08:44 23.38401 113.31159 59 ft 45 kts 14°
2026-05-07 08:44 23.38487 113.31183 59 ft 8 kts 14°
2026-05-07 08:44 23.38620 113.31206 56 ft 24 kts
2026-05-07 08:44 23.38796 113.31171 58 ft 25 kts 346°
2026-05-07 08:45 23.38824 113.31164 57 ft 4 kts 346°
2026-05-07 08:45 23.38888 113.31146 60 ft 14 kts 346°
2026-05-07 08:45 23.39005 113.31127 59 ft 20 kts
2026-05-07 08:45 23.39060 113.31138 58 ft 3 kts 12°
2026-05-07 08:46 23.39098 113.31124 59 ft 9 kts 316°
2026-05-07 08:46 23.39129 113.31032 57 ft 18 kts 284°
2026-05-07 08:46 23.39161 113.30895 63 ft 10 kts 284°
2026-05-07 08:46 23.39186 113.30795 58 ft 10 kts 289°
2026-05-07 08:47 23.39215 113.30779 55 ft 8 kts 348°
2026-05-07 08:47 23.39297 113.30801 57 ft 17 kts 15°
2026-05-07 08:47 23.39424 113.30836 60 ft 12 kts 13°
2026-05-07 08:47 23.39489 113.30814 57 ft 10 kts 302°
2026-05-07 08:48 23.39515 113.30726 59 ft 15 kts 283°
2026-05-07 08:48 23.39550 113.30620 58 ft 14 kts 315°
2026-05-07 08:48 23.39613 113.30589 57 ft 2 kts 340°
2026-05-07 08:48 23.39642 113.30578 57 ft 0 kts 340°